www.pogodaiklimat.ru
Время
(UTC), дата
00:56 29.12
01:56 29.12
02:56 29.12
03:56 29.12
04:56 29.12
05:56 29.12
06:56 29.12
07:56 30.12
08:56 30.12
09:56 30.12
10:56 30.12
11:56 30.12
12:56 30.12
13:56 30.12
14:56 30.12
15:56 30.12
16:56 30.12
17:56 30.12
18:56 30.12
19:56 30.12
20:56 30.12
21:56 30.12
22:56 30.12
23:56 30.12
00:56 30.12
01:56 30.12
02:56 30.12
03:56 30.12
04:56 30.12
05:56 30.12
06:56 30.12
07:53 31.12
07:56 31.12
08:56 31.12
09:56 31.12
10:56 31.12
11:56 31.12
12:53 31.12
12:56 31.12
13:56 31.12
14:56 31.12
15:56 31.12
16:56 31.12
17:56 31.12
18:56 31.12
19:56 31.12
20:56 31.12
21:56 31.12
Ветер
(напр.,м/с)
Видим. Явления Облачность Т
(С)
Тd
(С)
f
(%)
Тe
(С)
Тes
(С)
Комфортность P
(гПа)
Po
(гПа)
Тmin
(С)
Tmax
(С)
R
(мм)
R24
(мм)
S
(см)
СВ 4 16 км 10/0 2100 м
[средняя]
+1.1 -5.0 64 -4 -4 1018.0 868.0
СВ 4 16 км ясно +0.6 -5.0 66 -5 -5 1018.4 868.0
В 5 16 км 2/0 2250 м
[средняя]
+0.6 -5.0 66 -6 -6 1018.5 868.3
СВ 4 16 км 2/2 1800 м 0.0 -5.0 69 -6 -6 1019.0 868.9
СВ 3 16 км 2/0 2550 м
[средняя]
+0.6 -5.0 66 -4 -4 1019.0 869.2 0.0 +2.2
С 4 16 км ясно -1.7 -5.0 78 -7 -7 1019.5 869.2
С 2 16 км ясно -2.8 -6.1 78 -7 -7 1019.7 869.5
С 3 16 км ясно -3.9 -6.7 81 -9 -9 1020.3 869.8
С 1 16 км ясно -4.4 -7.2 81 -8 -8 1021.1 870.6
В 1 16 км 10/10 1950 м -3.9 -6.7 81 -7 -7 1021.8 870.9
0 16 км 10/10 1800 м -3.3 -5.6 84 -4 -4 1022.2 871.5 -5.0 +0.6
0 16 км 10/10 1800 м -2.8 -5.6 81 -4 -4 1022.8 871.8
0 16 км 10/10 1800 м -2.8 -5.6 81 -4 -4 1023.2 872.4
ЮВ 3 16 км 10/10 1650 м -2.2 -5.0 81 -7 -7 1023.6 872.7
ЮВ 1 16 км 10/10 1650 м -1.7 -4.4 82 -5 -5 1024.3 873.2
0 16 км 10/10 1800 м 0.0 -4.4 72 -1 -1 1025.2 874.1
0 16 км 10/10 1650 м +1.7 -3.9 66 +1 +1 1025.2 874.4 -3.3 +1.7
С 1 16 км 10/10 960 м +3.3 -2.8 64 +1 +1 1025.0 874.1
С 4 16 км 10/10 990 м +3.9 -2.2 64 -0 -0 1024.7 873.8
СЗ 2 16 км 10/10 1020 м +3.9 -2.2 64 +1 +1 1024.7 873.5
С 2 16 км 10/10 1170 м +5.0 -1.7 62 +2 +2 1024.7 873.8
С 3 16 км 10/10 1110 м +4.4 -2.2 62 +1 +1 1025.0 874.1
С 4 16 км 10/10 1230 м +4.4 -1.7 65 0 0 1025.0 874.1 +1.7 +5.0
С 3 16 км 10/10 750 м +3.3 -1.7 70 -1 -1 1025.8 874.7
С 3 16 км 10/10 1020 м +2.8 -1.7 72 -1 -1 1026.4 875.0
СВ 4 16 км 10/10 990 м +2.8 -2.2 70 -2 -2 1026.4 875.3
СВ 4 16 км 10/10 1020 м +2.2 -2.8 69 -3 -3 1026.7 875.6
СВ 5 16 км 10/10 1020 м +2.2 -3.3 67 -4 -4 1027.0 875.8
СВ 5 16 км 10/10 960 м +1.7 -3.9 66 -4 -4 1026.7 875.6 +1.7 +4.4
З 1 16 км 10/10 930 м +1.1 -3.9 69 -1 -1 1026.7 875.8
С 3 16 км 10/10 930 м +1.1 -3.3 72 -3 -3 1027.6 876.7
ЮЗ 1 16 км 10/10 870 м +1.0 -4.0 69 -2 -2 876.1
ЮЗ 1 16 км 10/10 870 м +0.6 -3.9 72 -2 -2 1027.0 876.1
З 3 16 км 10/10 810 м +0.6 -3.3 75 -4 -4 1027.1 876.4
З 2 16 км 10/10 780 м 0.0 -3.3 78 -4 -4 1027.0 876.1
С 3 16 км 10/10 810 м +0.6 -3.9 72 -4 -4 1026.8 876.1 0.0 +1.7
0 16 км 10/10 810 м +0.6 -3.9 72 -0 -0 1026.6 875.8
Ю 3 16 км 2/2 780 м -2.0 -5.0 80 -7 -7 875.3
Ю 3 16 км 2/2 780 м -2.2 -5.0 81 -7 -7 1026.6 875.3
0 16 км ясно -2.2 -5.0 81 -3 -3 1027.6 876.1
0 16 км 8/0 3300 м
[средняя]
-1.1 -3.9 81 -2 -2 1028.0 876.4
0 16 км 5/0 3300 м
[средняя]
+1.7 -3.3 69 +1 +1 1027.4 876.4
Ю 4 16 км ясно +3.3 -3.9 59 -1 -0 1027.1 876.4 -2.8 +3.3
Ю 4 16 км ясно +4.4 -3.3 57 0 +2 1025.5 875.0
нст 1 16 км ясно +5.6 -3.3 53 +4 +9 1024.2 874.1
З 1 16 км 8/0 2550 м
[средняя]
+6.7 -3.3 49 +6 +8 1024.0 874.1
З 6 16 км 10/5 1950 м
[средняя]
+6.7 -3.3 49 +3 +3 1023.4 873.5
Ю 3 16 км 10/0 2700 м
[средняя]
+7.2 -3.3 47 +5 +5 1022.8 872.9
Местоположение метеостанции Winnemucca Municipal Airport: широта 40.9019 долгота -117.8072 высота над уровнем моря 1311 м.
В архиве по умолчанию представлена погода в Виннемукке за последние 1-2 суток. Обновление информации о фактической погоде в базе происходит ежечасно! Архивные данные за месяц целиком и за предыдущие месяцы Вы можете получить, выбрав интересующий диапазон дат из раскрывающегося списка и нажав кнопку "Ввод!".
Внимание! Архив погоды МЕТАР в базе сайта по станциям, не включенным в климатический монитор, хранится не более 60 дней. Нет смысла пытаться выбрать более раннюю дату.
*Определитесь, кто Вы:
Внимание! Время в таблицах - всемирное. Для получения местного времени необходимо прибавить поправку, которая равна ч.
Смотрите также архив погоды в соседних городах и на ближайших метеорологических станциях:
Партнеры нашего сайта:      
Пояснения к столбцам:
  • Ветер - указаны скорость ветра в м/с - средняя за 10 мин, порывы в срок и между сроками (в фигурных скобках) и направление, откуда дует ветер: С - северный,
  • СВ - северо-восточный, В - восточный, ЮВ - юго-восточный, Ю - южный, ЮЗ - юго-западный, З - западный, СЗ - северо-западный.
  • Видимость - горизонтальная дальность видимости в метрах или километрах. При видимости от 1 до 10 км при отсутствии осадков обычно наблюдается дымка, при ухудшении видимости до 1 км и менее - туман. В сухую погоду видимость может ухудшаться дымом, пылью или мглою.
  • Явления - указаны атмосферные явления, наблюдавшиеся в срок или в последний час перед сроком; фигурными скобками обозначены явления, наблюдавшиеся между сроками (за 1-3 часа до срока); квадратными скобками обозначены град или гололедные отложения с указанием их диаметра в мм.
  • Облачность - указаны через наклонную черту общая и нижняя облачность в баллах и высота нижней границы облаков в метрах; квадратными скобками обозначены формы облаков: Ci - перистые, Cs - перисто-слоистые, Cc - перисто-кучевые, Ac - высококучевые, As - высокослоистые, Sc - слоисто-кучевые, Ns - слоисто-дождевые, Cu - кучевые, Cb - кучево-дождевые. Подробнее классификацию облаков см. в Атласе облаков (PDF).
  • T - Температура воздуха - температура, измеренная на высоте 2 м над землей.
  • Td - Температура точки росы - температура, при понижении до которой содержащийся в воздухе водяной пар достигнет насыщения.
  • f - Относительная влажность воздуха - влажноcть воздуха, измеренная на высоте 2 м над землей.
  • Te - Эффективная температура - температура, которую ощущает одетый по сезону человек в тени. Характеристика душности погоды. При расчете учитывается влияние влажности воздуха и скорости ветра на теплоощущения человека.
  • Tes - Эффективная температура на солнце - температура, которую ощущает человек, с поправкой на солнечный нагрев. Характеристика знойности погоды. Зависит от высоты солнца над горизонтом, облачности и скорости ветра. Ночью, в пасмурную погоду, а также при ветре 12 м/с и более поправка равна нулю.
  • P - Атмосферное давление - приведенное к уровню моря атмосферное давление.
  • Po - Атмосферное давление - измеренное на уровне метеостанции атмосферное давление.
  • Tmin - Минимальная температура - минимум температуры воздуха на высоте 2 м над землей.
  • Tmax - Максимальная температура - максимум температуры воздуха на высоте 2 м над землей.
  • R - Количество осадков - Количество выпавших осадков за период времени, мм. При наведении курсора мыши на число - период времени, за который выпало указанное количество осадков.
  • R24 - Количество осадков - Количество выпавших осадков за 24 часа, мм.
  • S - Снежный покров - Высота снежного покрова, см. При наведении курсора мыши на число - состояние снежного покрова и степень покрытия местности в баллах.